This demonstration page uses our WeatherBlox Daily Observations layout. Learn more.

Left ArrowRight Arrow

Hourly Observations for January 6, 2017

Temp ( °F °C ) Dew Point ( °F °C ) Humidity (%) Winds ( mph kmh ) Pressure ( in mb ) Visibility ( mi km ) Precip ( " mm )
12:59 am 00:59 Cloudy 42 5.6 32 0 68 68 N 12 19 29.89 1012 9 14 0.01 0.25
1:37 am 01:37 Cloudy 41 5 31 -0.6 67 67 N 10 17 29.88 1012 10 16 0.00 0.00
1:59 am 01:59 Cloudy 41 5 32 0 70 70 N 12 19 29.87 1012 10 16 0.00 0.00
2:59 am 02:59 Cloudy 40 4.4 35 1.7 83 83 N 10 17 29.89 1012 10 16 0.00 0.00
3:59 am 03:59 Cloudy 41 5 33 0.6 73 73 N 10 17 29.88 1012 10 16 0.01 0.25
4:37 am 04:37 Cloudy 41 5 34 1.1 76 76 N 9 15 29.88 1012 10 16 0.00 0.00
4:59 am 04:59 Cloudy 41 5 32 0 70 70 N 7 11 29.88 1012 10 16 0.00 0.00
5:59 am 05:59 Mostly Cloudy 42 5.6 30 -1.1 62 62 NNW 13 20 29.93 1014 10 16 0.00 0.00
6:59 am 06:59 Cloudy 41 5 30 -1.1 65 65 N 12 19 29.97 1015 10 16 0.00 0.00
7:59 am 07:59 Cloudy 41 5 33 0.6 73 73 NNE 15 24 30.00 1016 10 16 0.00 0.00
8:59 am 08:59 Cloudy 39 3.9 32 0 76 76 NNE 20 31 30.04 1017 10 16 0.00 0.00
9:59 am 09:59 Cloudy 38 3.3 30 -1.1 73 73 NNE 15 24 30.06 1018 10 16 0.00 0.00
10:59 am 10:59 Cloudy 38 3.3 28 -2.2 68 68 N 16 26 30.09 1019 10 16 0.00 0.00
11:07 am 11:07 Cloudy 38 3.3 27 -2.8 65 65 N 16 26 30.09 1019 10 16 0.00 0.00
12:59 pm 12:59 Cloudy 38 3.3 27 -2.8 65 65 N 17 28 30.09 1019 10 16 0.00 0.00
1:59 pm 13:59 Cloudy 37 2.8 26 -3.3 65 65 NNE 16 26 30.11 1020 10 16 0.00 0.00
2:59 pm 14:59 Cloudy 37 2.8 26 -3.3 65 65 NNE 15 24 30.14 1021 10 16 0.00 0.00
3:59 pm 15:59 Cloudy 36 2.2 25 -3.9 64 64 NNE 13 20 30.15 1021 10 16 0.00 0.00
4:36 pm 16:36 Cloudy 36 2.2 25 -3.9 64 64 NNE 13 20 30.18 1022 10 16 0.00 0.00
4:46 pm 16:46 Cloudy 36 2.2 25 -3.9 64 64 NNE 10 17 30.18 1022 10 16 0.00 0.00
4:59 pm 16:59 Cloudy 36 2.2 25 -3.9 64 64 NNE 13 20 30.16 1021 10 16 0.00 0.00
5:40 pm 17:40 Cloudy 36 2.2 25 -3.9 64 64 N 12 19 30.18 1022 10 16 0.00 0.00
5:59 pm 17:59 Cloudy 36 2.2 25 -3.9 64 64 NNE 12 19 30.19 1023 10 16 0.00 0.00
6:59 pm 18:59 Cloudy 36 2.2 24 -4.4 62 62 NNE 16 26 30.20 1023 10 16 0.00 0.00
7:59 pm 19:59 Cloudy with Light Snow 35 1.7 25 -3.9 67 67 NNE 17 28 30.22 1023 9 14 0.00 0.00
8:59 pm 20:59 Cloudy with Light Rain/Snow 34 1.1 27 -2.8 76 76 NNE 14 22 30.25 1024 7 11 0.01 0.25
9:59 pm 21:59 Cloudy 34 1.1 27 -2.8 76 76 NNE 13 20 30.22 1024 10 16 0.00 0.00
10:40 pm 22:40 Cloudy 34 1.1 27 -2.8 76 76 NNE 10 17 30.24 1024 7 11 0.01 0.25
10:54 pm 22:54 Cloudy with Light Snow 34 1 27 -3 75 75 NNE 13 20 30.24 1024 6 10 0.02 0.51
10:59 pm 22:59 Cloudy with Light Snow 33 0.6 28 -2.2 82 82 NE 14 22 30.23 1024 5 8 0.02 0.51
11:04 pm 23:04 Cloudy with Light Snow 33 0.6 28 -2.2 82 82 NNE 12 19 30.24 1024 4 6 0.00 0.00
11:59 pm 23:59 Cloudy with Light Snow 32 0 27 -2.8 82 82 N 13 20 30.25 1024 3 5 0.02 0.51

Powered by AerisWeather